• In Deutschland
  • Länderverzeichnis
  • Für 7 Tage
  • Wassertemperatur
  • Satellitenkarten
  • Wetterkarte
  • Widgets
  • user-avatar
    Anmelden

    Stündliche Wetter Reichenbach im Vogtland

    Heute, 21 April, Samstag

    Zeit Temperatur Niederschläge Wind Luftdruck Luftfeuchtigkeit
    00:00 +16°C° 0 mm 1 m/S 730 mmHg 70%
    01:00 +15°C° 0 mm 1 m/S 730 mmHg 71%
    02:00 +15°C° 0 mm 1 m/S 729 mmHg 72%
    03:00 +14°C° 0 mm 1 m/S 729 mmHg 73%
    04:00 +14°C° 0 mm 1 m/S 729 mmHg 75%
    05:00 +15°C° 0 mm 1 m/S 729 mmHg 74%
    06:00 +16°C° 0 mm 1 m/S 729 mmHg 73%
    07:00 +18°C° 0 mm 1 m/S 730 mmHg 72%
    08:00 +19°C° 0 mm 1 m/S 730 mmHg 69%
    09:00 +20°C° 0 mm 2 m/S 730 mmHg 65%
    10:00 +21°C° 0 mm 2 m/S 730 mmHg 62%
    11:00 +23°C° 0 mm 2 m/S 730 mmHg 60%
    12:00 +23°C° 0 mm 2 m/S 730 mmHg 58%
    13:00 +24°C° 0 mm 3 m/S 730 mmHg 57%
    14:00 +24°C° 0,2 mm 3 m/S 730 mmHg 59%
    15:00 +22°C° 0,2 mm 3 m/S 729 mmHg 61%
    16:00 +22°C° 0,2 mm 3 m/S 729 mmHg 62%
    17:00 +20°C° 0,1 mm 3 m/S 729 mmHg 69%
    18:00 +18°C° 0,1 mm 3 m/S 729 mmHg 75%
    19:00 +17°C° 0,1 mm 2 m/S 729 mmHg 82%
    20:00 +16°C° 0 mm 2 m/S 729 mmHg 84%
    21:00 +14°C° 0 mm 2 m/S 729 mmHg 87%
    22:00 +13°C° 0 mm 1 m/S 729 mmHg 89%
    23:00 +13°C° 0 mm 1 m/S 729 mmHg 89%

    Morgen, 22 April, Sonntag

    Zeit Temperatur Niederschläge Wind Luftdruck Luftfeuchtigkeit
    00:00 +12°C° 0 mm 1 m/S 729 mmHg 89%
    01:00 +12°C° 0 mm 1 m/S 729 mmHg 89%
    02:00 +12°C° 0 mm 1 m/S 729 mmHg 88%
    03:00 +11°C° 0 mm 1 m/S 729 mmHg 88%
    04:00 +10°C° 0 mm 0 m/S 729 mmHg 87%
    05:00 +11°C° 0 mm 0 m/S 729 mmHg 83%
    06:00 +13°C° 0 mm 1 m/S 729 mmHg 79%
    07:00 +15°C° 0 mm 1 m/S 729 mmHg 76%
    08:00 +18°C° 0 mm 1 m/S 729 mmHg 69%
    09:00 +20°C° 0 mm 1 m/S 729 mmHg 62%
    10:00 +22°C° 0 mm 1 m/S 729 mmHg 55%
    11:00 +23°C° 0 mm 1 m/S 728 mmHg 52%
    12:00 +24°C° 0 mm 1 m/S 728 mmHg 48%
    13:00 +25°C° 0 mm 1 m/S 728 mmHg 44%
    14:00 +25°C° 0 mm 1 m/S 727 mmHg 45%
    15:00 +25°C° 0 mm 1 m/S 727 mmHg 46%
    16:00 +25°C° 0 mm 1 m/S 726 mmHg 48%
    17:00 +23°C° 0 mm 1 m/S 726 mmHg 54%
    18:00 +21°C° 0 mm 1 m/S 726 mmHg 61%
    19:00 +20°C° 0 mm 1 m/S 725 mmHg 67%
    20:00 +19°C° 0,1 mm 1 m/S 725 mmHg 71%
    21:00 +17°C° 0,1 mm 2 m/S 725 mmHg 75%
    22:00 +16°C° 0,1 mm 2 m/S 725 mmHg 79%
    23:00 +16°C° 0,3 mm 2 m/S 725 mmHg 82%

    übermorgen, 23 April, Montag

    Zeit Temperatur Niederschläge Wind Luftdruck Luftfeuchtigkeit
    00:00 +15°C° 0,3 mm 2 m/S 725 mmHg 84%
    01:00 +14°C° 0,3 mm 3 m/S 725 mmHg 87%
    02:00 +14°C° 0,1 mm 3 m/S 725 mmHg 88%
    03:00 +13°C° 0,1 mm 3 m/S 725 mmHg 89%
    04:00 +13°C° 0,1 mm 3 m/S 725 mmHg 90%
    05:00 +14°C° 0,1 mm 3 m/S 725 mmHg 90%
    06:00 +14°C° 0,1 mm 3 m/S 725 mmHg 89%
    07:00 +15°C° 0,1 mm 4 m/S 725 mmHg 88%
    08:00 +17°C° 0,7 mm 4 m/S 725 mmHg 85%
    09:00 +17°C° 0,7 mm 4 m/S 725 mmHg 82%
    10:00 +17°C° 0,7 mm 5 m/S 725 mmHg 80%
    11:00 +17°C° 0,9 mm 5 m/S 725 mmHg 79%
    12:00 +19°C° 0,9 mm 5 m/S 725 mmHg 78%
    13:00 +19°C° 0,9 mm 6 m/S 724 mmHg 78%
    14:00 +17°C° 1 mm 5 m/S 724 mmHg 79%
    15:00 +17°C° 1 mm 5 m/S 724 mmHg 80%
    16:00 +17°C° 1 mm 5 m/S 724 mmHg 81%
    17:00 +16°C° 0,3 mm 5 m/S 724 mmHg 83%
    18:00 +15°C° 0,3 mm 4 m/S 725 mmHg 85%
    19:00 +14°C° 0,3 mm 3 m/S 725 mmHg 87%
    20:00 +12°C° 0,1 mm 3 m/S 725 mmHg 89%
    21:00 +11°C° 0,1 mm 3 m/S 726 mmHg 90%
    22:00 +10°C° 0,1 mm 2 m/S 727 mmHg 91%
    23:00 +9°C° 0 mm 2 m/S 727 mmHg 92%

    24 April, Dienstag

    Zeit Temperatur Niederschläge Wind Luftdruck Luftfeuchtigkeit
    00:00 +9°C° 0 mm 2 m/S 727 mmHg 93%
    01:00 +8°C° 0 mm 2 m/S 728 mmHg 94%
    02:00 +8°C° 0 mm 2 m/S 728 mmHg 95%
    03:00 +7°C° 0 mm 2 m/S 728 mmHg 95%
    04:00 +7°C° 0 mm 2 m/S 728 mmHg 95%
    05:00 +8°C° 0 mm 2 m/S 728 mmHg 93%
    06:00 +8°C° 0 mm 3 m/S 728 mmHg 90%
    07:00 +9°C° 0 mm 3 m/S 728 mmHg 87%
    08:00 +11°C° 0 mm 4 m/S 728 mmHg 81%
    09:00 +12°C° 0 mm 4 m/S 728 mmHg 74%
    10:00 +14°C° 0 mm 5 m/S 728 mmHg 68%
    11:00 +15°C° 0 mm 5 m/S 728 mmHg 63%
    12:00 +16°C° 0 mm 6 m/S 727 mmHg 58%
    13:00 +19°C° 0 mm 6 m/S 727 mmHg 53%
    14:00 +19°C° 0 mm 6 m/S 727 mmHg 53%
    15:00 +19°C° 0 mm 6 m/S 726 mmHg 52%
    16:00 +19°C° 0 mm 5 m/S 726 mmHg 51%
    17:00 +18°C° 0 mm 4 m/S 726 mmHg 58%
    18:00 +15°C° 0 mm 4 m/S 726 mmHg 64%
    19:00 +14°C° 0 mm 3 m/S 725 mmHg 71%
    20:00 +13°C° 0 mm 3 m/S 726 mmHg 73%
    21:00 +12°C° 0 mm 3 m/S 726 mmHg 75%
    22:00 +11°C° 0 mm 3 m/S 726 mmHg 78%
    23:00 +11°C° 0 mm 3 m/S 726 mmHg 80%

    25 April, Mittwoch

    Zeit Temperatur Niederschläge Wind Luftdruck Luftfeuchtigkeit
    00:00 +10°C° 0 mm 3 m/S 726 mmHg 83%
    01:00 +10°C° 0 mm 3 m/S 726 mmHg 85%
    02:00 +10°C° 0 mm 3 m/S 726 mmHg 87%
    03:00 +9°C° 0 mm 2 m/S 725 mmHg 90%
    04:00 +9°C° 0 mm 2 m/S 725 mmHg 92%
    05:00 +10°C° 0 mm 3 m/S 725 mmHg 89%
    06:00 +11°C° 0 mm 3 m/S 725 mmHg 86%
    07:00 +12°C° 0 mm 3 m/S 725 mmHg 82%
    08:00 +14°C° 0 mm 4 m/S 725 mmHg 75%
    09:00 +16°C° 0 mm 5 m/S 725 mmHg 68%
    10:00 +19°C° 0 mm 5 m/S 725 mmHg 61%
    11:00 +19°C° 0,1 mm 5 m/S 724 mmHg 62%
    12:00 +19°C° 0,1 mm 6 m/S 724 mmHg 64%
    13:00 +19°C° 0,1 mm 6 m/S 723 mmHg 65%
    14:00 +19°C° 0,3 mm 6 m/S 723 mmHg 68%
    15:00 +19°C° 0,3 mm 6 m/S 722 mmHg 71%
    16:00 +17°C° 0,3 mm 6 m/S 722 mmHg 74%
    17:00 +16°C° 0,5 mm 5 m/S 722 mmHg 79%
    18:00 +15°C° 0,5 mm 4 m/S 722 mmHg 84%
    19:00 +14°C° 0,5 mm 3 m/S 722 mmHg 88%
    20:00 +13°C° 0 mm 3 m/S 722 mmHg 90%
    21:00 +13°C° 0 mm 2 m/S 723 mmHg 93%
    22:00 +12°C° 0 mm 1 m/S 723 mmHg 95%
    23:00 +12°C° 0 mm 2 m/S 723 mmHg 95%

    26 April, Donnerstag

    Zeit Temperatur Niederschläge Wind Luftdruck Luftfeuchtigkeit
    00:00 +12°C° 0 mm 2 m/S 723 mmHg 95%
    01:00 +10°C° 0 mm 2 m/S 724 mmHg 95%
    02:00 +10°C° 0,2 mm 2 m/S 724 mmHg 95%
    03:00 +10°C° 0,2 mm 2 m/S 724 mmHg 96%
    04:00 +9°C° 0,2 mm 2 m/S 724 mmHg 96%
    05:00 +8°C° 0,1 mm 4 m/S 724 mmHg 92%
    06:00 +8°C° 0,1 mm 5 m/S 724 mmHg 89%
    07:00 +8°C° 0,1 mm 6 m/S 725 mmHg 85%
    08:00 +8°C° 0,1 mm 7 m/S 725 mmHg 81%
    09:00 +8°C° 0,1 mm 7 m/S 726 mmHg 77%
    10:00 +7°C° 0,1 mm 8 m/S 726 mmHg 73%
    11:00 +9°C° 0,1 mm 8 m/S 726 mmHg 66%
    12:00 +10°C° 0,1 mm 8 m/S 727 mmHg 59%
    13:00 +11°C° 0,1 mm 8 m/S 727 mmHg 52%
    14:00 +10°C° 0,2 mm 8 m/S 727 mmHg 55%
    15:00 +10°C° 0,2 mm 8 m/S 727 mmHg 58%
    16:00 +9°C° 0,2 mm 7 m/S 727 mmHg 61%
    17:00 +8°C° 0,2 mm 6 m/S 727 mmHg 66%
    18:00 +7°C° 0,2 mm 5 m/S 728 mmHg 71%
    19:00 +6°C° 0,2 mm 4 m/S 728 mmHg 76%
    20:00 +5°C° 0,1 mm 4 m/S 729 mmHg 79%
    21:00 +4°C° 0,1 mm 3 m/S 729 mmHg 82%
    22:00 +4°C° 0,1 mm 3 m/S 730 mmHg 86%
    23:00 +3°C° 0 mm 3 m/S 730 mmHg 87%
    Mehr zeigen